TimeCET,TemperatureF,Dew PointF,Humidity,Sea Level PressureIn,VisibilityMPH,Wind Direction,Wind SpeedMPH,Gust SpeedMPH,PrecipitationIn,Events,Conditions,WindDirDegrees,DateUTC
12:20 AM,46.4,42.8,87,29.86,6.2,SW,6.9,-,N/A,Rain,Light Rain,230,2013-11-06 23:20:00
12:50 AM,44.6,44.6,100,29.86,5.0,SW,4.6,-,N/A,Rain,Light Rain,220,2013-11-06 23:50:00
1:00 AM,45,44,97,29.89,5,SW,4.5,,,Rain,Light Rain,220,2013-11-07 00:00:00
1:20 AM,44.6,44.6,100,29.86,3.7,SSE,5.8,-,N/A,Rain,Light Rain,160,2013-11-07 00:20:00
1:50 AM,44.6,44.6,100,29.86,6.2,SSE,10.4,-,N/A,Rain,Light Rain,150,2013-11-07 00:50:00
2:20 AM,44.6,44.6,100,29.86,6.2,SSE,8.1,-,N/A,,Mostly Cloudy,150,2013-11-07 01:20:00
2:50 AM,46.4,44.6,93,29.86,6.2,SE,10.4,-,N/A,,Mostly Cloudy,140,2013-11-07 01:50:00
3:20 AM,46.4,44.6,93,29.86,6.2,SSE,9.2,-,N/A,,Mostly Cloudy,150,2013-11-07 02:20:00
3:50 AM,46.4,44.6,93,29.86,6.2,South,6.9,-,N/A,,Mostly Cloudy,170,2013-11-07 02:50:00
4:20 AM,46.4,44.6,93,29.86,6.2,SSE,10.4,-,N/A,,Mostly Cloudy,160,2013-11-07 03:20:00
4:50 AM,46.4,44.6,93,29.86,6.2,South,8.1,-,N/A,,Mostly Cloudy,170,2013-11-07 03:50:00
5:20 AM,46.4,44.6,93,29.86,6.2,South,9.2,-,N/A,,Mostly Cloudy,180,2013-11-07 04:20:00
5:50 AM,46.4,44.6,93,29.86,6.2,South,10.4,-,N/A,,Mostly Cloudy,180,2013-11-07 04:50:00
6:20 AM,46.4,44.6,93,29.86,6.2,South,9.2,-,N/A,,Mostly Cloudy,190,2013-11-07 05:20:00
6:50 AM,53.6,46.4,77,29.86,6.2,SSW,10.4,-,N/A,,Mostly Cloudy,210,2013-11-07 05:50:00
7:00 AM,53,46,71,29.88,31,SSW,11.2,,,,Partly Cloudy,210,2013-11-07 06:00:00
7:20 AM,53.6,46.4,77,29.89,6.2,SW,8.1,-,N/A,,Mostly Cloudy,230,2013-11-07 06:20:00
7:50 AM,50.0,46.4,87,29.89,6.2,South,9.2,-,N/A,,Mostly Cloudy,190,2013-11-07 06:50:00
8:20 AM,55.4,48.2,77,29.89,6.2,SW,9.2,-,N/A,,Mostly Cloudy,230,2013-11-07 07:20:00
8:50 AM,57.2,48.2,72,29.89,6.2,SW,5.8,-,N/A,,Mostly Cloudy,230,2013-11-07 07:50:00
9:20 AM,60.8,48.2,63,29.89,6.2,West,10.4,-,N/A,,Scattered Clouds,280,2013-11-07 08:20:00
9:50 AM,62.6,50.0,63,29.89,6.2,West,12.7,-,N/A,,Scattered Clouds,280,2013-11-07 08:50:00
10:00 AM,63,49,51,29.91,31,West,13.4,,,,Partly Cloudy,280,2013-11-07 09:00:00
10:20 AM,64.4,48.2,56,29.92,6.2,West,17.3,-,N/A,,Partly Cloudy,270,2013-11-07 09:20:00
10:50 AM,64.4,48.2,56,29.89,6.2,West,21.9,-,N/A,,Partly Cloudy,280,2013-11-07 09:50:00
11:20 AM,66.2,48.2,52,29.92,6.2,West,20.7,-,N/A,,Partly Cloudy,280,2013-11-07 10:20:00
11:50 AM,64.4,48.2,56,29.92,6.2,West,17.3,-,N/A,,Scattered Clouds,280,2013-11-07 10:50:00
12:20 PM,64.4,48.2,56,29.92,6.2,West,20.7,-,N/A,,Scattered Clouds,280,2013-11-07 11:20:00
12:50 PM,66.2,48.2,52,29.92,6.2,West,18.4,-,N/A,,Partly Cloudy,280,2013-11-07 11:50:00
1:00 PM,65,47,42,29.92,31,West,17.9,,,,Scattered Clouds,280,2013-11-07 12:00:00
1:20 PM,66.2,48.2,52,29.92,6.2,West,18.4,-,N/A,,Partly Cloudy,270,2013-11-07 12:20:00
1:50 PM,66.2,48.2,52,29.92,6.2,West,17.3,-,N/A,,Partly Cloudy,270,2013-11-07 12:50:00
2:20 PM,66.2,48.2,52,29.92,6.2,West,17.3,-,N/A,,Partly Cloudy,270,2013-11-07 13:20:00
2:50 PM,66.2,46.4,49,29.92,6.2,West,16.1,-,N/A,,Partly Cloudy,270,2013-11-07 13:50:00
3:20 PM,66.2,46.4,49,29.92,6.2,West,17.3,-,N/A,,Scattered Clouds,270,2013-11-07 14:20:00
3:50 PM,66.2,46.4,49,29.92,6.2,West,17.3,-,N/A,,Scattered Clouds,270,2013-11-07 14:50:00
4:00 PM,65,47,41,29.92,31,West,17.9,,,,Scattered Clouds,270,2013-11-07 15:00:00
4:20 PM,62.6,48.2,59,29.95,-9999.0,West,11.5,-,N/A,,Clear,270,2013-11-07 15:20:00
4:50 PM,62.6,46.4,55,29.95,-9999.0,West,12.7,-,N/A,,Clear,280,2013-11-07 15:50:00
5:20 PM,60.8,46.4,59,29.95,-9999.0,West,10.4,-,N/A,,Clear,270,2013-11-07 16:20:00
5:50 PM,60.8,46.4,59,29.98,-9999.0,West,8.1,-,N/A,,Clear,260,2013-11-07 16:50:00
6:20 PM,60.8,46.4,59,29.98,-9999.0,West,8.1,-,N/A,,Clear,260,2013-11-07 17:20:00
6:50 PM,59.0,46.4,63,29.98,-9999.0,SW,3.5,-,N/A,,Clear,230,2013-11-07 17:50:00
7:00 PM,58,47,56,29.99,31,SW,4.5,,,,Scattered Clouds,230,2013-11-07 18:00:00
7:20 PM,59.0,46.4,63,29.98,-9999.0,WSW,4.6,-,N/A,,Clear,250,2013-11-07 18:20:00
7:50 PM,57.2,48.2,72,29.98,-9999.0,SSW,5.8,-,N/A,,Clear,210,2013-11-07 18:50:00
8:20 PM,55.4,48.2,77,29.98,-9999.0,South,6.9,-,N/A,,Clear,190,2013-11-07 19:20:00
8:50 PM,55.4,46.4,72,29.98,-9999.0,SE,4.6,-,N/A,,Clear,130,2013-11-07 19:50:00
9:20 PM,53.6,46.4,77,29.98,-9999.0,South,5.8,-,N/A,,Clear,170,2013-11-07 20:20:00
9:50 PM,53.6,48.2,82,29.98,-9999.0,South,10.4,-,N/A,,Clear,170,2013-11-07 20:50:00
10:00 PM,53,47,75,30.00,31,South,11.2,,,,Scattered Clouds,170,2013-11-07 21:00:00
10:20 PM,50.0,46.4,87,29.98,-9999.0,South,10.4,-,N/A,,Clear,170,2013-11-07 21:20:00
10:50 PM,50.0,46.4,87,29.98,-9999.0,South,11.5,-,N/A,,Clear,170,2013-11-07 21:50:00
11:20 PM,48.2,44.6,87,29.98,-9999.0,SSE,10.4,-,N/A,,Clear,160,2013-11-07 22:20:00
11:50 PM,48.2,46.4,93,29.98,-9999.0,South,9.2,-,N/A,,Clear,180,2013-11-07 22:50:00